Tracking 35237 objects as of 6-Sep-2026
HD Live streaming from Space Station
objects crossing your sky now

SL-7 DEB


SL-7 DEB is no longer on orbit


NORAD ID: 3768
Int'l Code: 1968-117Z
Launch date: December 19, 1968
Source: Commonwealth of Independent States (former USSR) (CIS)
Launch site: PLESETSK MISSILE AND SPACE COMPLEX (PKMTR)
Decay date: 1969-03-04

Note: This is SATELLITE DEBRIS
Your satellite tracking list
Your tracking list is empty




NASA's NSSDC Master Catalog

Two Line Element Set (TLE):
1 03768U 68117  Z 69059.93451611  .03386246 +00000-0 +00000-0 0  9998
2 03768 070.9738 261.0752 0000003 303.9456 056.2678 16.05718511010602
Source of the keplerian elements: AFSPC